Home > Weather > Brasilia > Past weeks

Flag for Brazil Past Weather in Brasilia, Distrito Federal, Brazil — Yesterday and Last 2 Weeks

Now
64 °F

Sunny.


Feels Like: 64 °F
Forecast: 58 / 79 °F
Wind: 3 mph from Southeast

Location: Brasilia Aeroporto

Current Time: Aug 27, 2016 at 8:56:18 AM

Latest Report: Aug 27, 2016 at 8:00 AM


Visibility: 10 mi

Pressure: 30.18 "Hg (26.55 "Hg at 1091m altitude)

Humidity: 56%

Dew Point: 48 °F

Location of BrasiliaLocation

Past Weather in Brasilia — Graph

°F

Brasilia Temperature Yesterday

Maximum temperature yesterday: 82 °F (at 3:00 PM)
Minimum temperature yesterday: 54 °F (at 5:00 AM)
Average temperature yesterday: 68 °F

High & Low Weather Summary for the Past Weeks

 TemperatureHumidityPressure
High86 °F (Aug 15, 3:00 PM)100% (Aug 22, 1:00 AM)30.27 "Hg (Aug 22, 1:00 AM)
Low50 °F (Aug 22, 6:00 AM)21% (Aug 26, 3:00 PM)30.01 "Hg (Aug 15, 3:00 PM)
Average70 °F58%30.13 "Hg
* Reported Aug 12 7:00 AM — Aug 27 7:00 AM, Brasilia, Weather by CustomWeather, © 2016

Note: Actual official high and low records may vary slightly from our data, if they occured in-between our weather recording intervals... More about our weather records

Advertising

Brasilia Weather History for the Previous 24 Hours

Scroll right to see more
 ConditionsComfort  
Time TempWeatherWind HumidityBarometerVisibility
7:00 AM
Sat, Aug 27
57 °FSunny.No wind72%30.15 "Hg10 mi
6:00 AM55 °FClear.3 mph72%30.12 "Hg10 mi
5:00 AM52 °FClear.2 mph82%30.12 "Hg10 mi
4:00 AM55 °FClear.No wind72%30.09 "Hg10 mi
3:00 AM57 °FClear.No wind67%30.09 "Hg10 mi
2:00 AM57 °FClear.3 mph67%30.12 "Hg10 mi
1:00 AM59 °FClear.2 mph59%30.12 "Hg10 mi
12:00 AM63 °FClear.3 mph52%30.12 "Hg10 mi
11:00 PM
Fri, Aug 26
63 °FClear.2 mph45%30.15 "Hg10 mi
10:00 PM66 °FClear.6 mph40%30.15 "Hg10 mi
9:00 PM68 °FClear.6 mph38%30.12 "Hg10 mi
8:00 PM68 °FClear.7 mph38%30.12 "Hg10 mi
7:00 PM73 °FClear.6 mph29%30.09 "Hg10 mi
6:00 PM75 °FSunny.5 mph29%30.09 "Hg10 mi
5:00 PM81 °FSunny.6 mph21%30.07 "Hg10 mi
4:00 PM82 °FSunny.6 mph21%30.07 "Hg10 mi
3:00 PM82 °FSunny.8 mph21%30.07 "Hg10 mi
2:00 PM81 °FSunny.10 mph24%30.09 "Hg10 mi
1:00 PM81 °FSunny.10 mph24%30.12 "Hg10 mi
12:00 PM77 °FSunny.10 mph30%30.15 "Hg10 mi
11:00 AM75 °FSunny.9 mph34%30.18 "Hg10 mi
10:00 AM73 °FSunny.12 mph38%30.21 "Hg10 mi
9:00 AM68 °FSunny.13 mph46%30.21 "Hg10 mi
8:00 AM64 °FSunny.8 mph52%30.18 "Hg10 mi
Weather by CustomWeather, © 2016

See weather overviewHow to use our weather pages